Weather History for KFAM - August, 2013

Change the Weather History Date:

Wednesday, August 7, 2013

  Actual Average (KCGI) Record (KCGI)
Temperature  
Mean Temperature 76 °F 78 °F  
Max Temperature 82 °F 89 °F 99 °F (1962)
Min Temperature 69 °F 67 °F 50 °F (2004)
Degree Days  
Heating Degree Days 0 0  
Month to date heating degree days 0  
Since 1 June heating degree days 4  
Since 1 July heating degree days 0  
Cooling Degree Days 10 13  
Month to date cooling degree days 91  
Year to date cooling degree days 977  
Since 1 June cooling degree days 825  
Growing Degree Days 26 (Base 50)    
Moisture  
Dew Point 69 °F    
Average Humidity 85    
Maximum Humidity 94    
Minimum Humidity 66    
Precipitation  
Precipitation 0.75 in 0.09 in 0.66 in (2003)
Month to date precipitation 0.65  
Year to date precipitation 28.68  
Sea Level Pressure  
Sea Level Pressure 29.93 in    
Wind  
Wind Speed 6 mph (SSW)    
Max Wind Speed 20 mph    
Max Gust Speed 37 mph    
Visibility 10 miles    
Events Thunderstorm    
T = Trace of Precipitation, MM = Missing Value Source: NWS Daily Summary

Daily Weather History Graph

Daily Weather History Graph

Search for Another Location

Airport or City:

Trip Planner

Search our weather history database for the weather conditions in past years. The results will help you decide how hot, cold, wet, or windy it might be!

Date:

Astronomy

Aug. 07, 2013 Rise Set
Actual Time 6:10 AM CDT 8:03 PM CDT
Civil Twilight 5:42 AM CDT 8:32 PM CDT
Nautical Twilight 5:07 AM CDT 9:06 PM CDT
Astronomical Twilight 4:30 AM CDT 9:43 PM CDT
Moon 6:57 AM CDT (8/7) 8:13 PM CDT (8/7)
Length of Visible Light 14h 50m
Length of Day
13h 53m
New Moon, 1% of the Moon is Illuminated
Aug 7
New Moon
Aug 14
First Quarter
Aug 20
Full
Aug 28
Last Quarter
Sep 5
New

Hourly Weather History & Observations

Time (CDT) Temp. Heat Index Dew Point Humidity Pressure Visibility Wind Dir Wind Speed Gust Speed Precip Events Conditions
12:15 AM 73.4 °F - 71.6 °F 94% 29.95 in 10.0 mi South 5.8 mph - N/A   Clear
12:35 AM 73.4 °F - 71.6 °F 94% 29.94 in 10.0 mi South 4.6 mph - N/A   Scattered Clouds
12:55 AM 73.4 °F - 71.6 °F 94% 29.93 in 10.0 mi South 5.8 mph - N/A   Mostly Cloudy
1:15 AM 73.4 °F - 69.8 °F 88% 29.93 in 10.0 mi SSW 3.5 mph - N/A   Mostly Cloudy
1:35 AM 73.4 °F - 71.6 °F 94% 29.92 in 10.0 mi South 8.1 mph - N/A   Mostly Cloudy
1:55 AM 73.4 °F - 71.6 °F 94% 29.92 in 10.0 mi South 5.8 mph - N/A   Overcast
2:15 AM 73.4 °F - 71.6 °F 94% 29.89 in 10.0 mi South 6.9 mph - N/A   Mostly Cloudy
2:35 AM 73.4 °F - 71.6 °F 94% 29.90 in 9.0 mi SSW 5.8 mph - N/A Thunderstorm Thunderstorm
2:55 AM 73.4 °F - 71.6 °F 94% 29.90 in 10.0 mi South 10.4 mph - N/A Thunderstorm Scattered Clouds
3:15 AM 73.4 °F - 71.6 °F 94% 29.91 in 10.0 mi SW 8.1 mph - N/A Thunderstorm Mostly Cloudy
3:35 AM 73.4 °F - 71.6 °F 94% 29.87 in 10.0 mi South 9.2 mph - 0.03 in Thunderstorm Thunderstorm
3:55 AM 73.4 °F - 71.6 °F 94% 29.90 in 10.0 mi SSW 12.7 mph - 0.06 in Thunderstorm Thunderstorm
4:15 AM 73.4 °F - 71.6 °F 94% 29.88 in 10.0 mi South 19.6 mph 23.0 mph 0.04 in Thunderstorm Thunderstorm
4:35 AM 71.6 °F - 68.0 °F 88% 29.87 in 10.0 mi WSW 11.5 mph 36.8 mph 0.05 in Thunderstorm Thunderstorm
4:55 AM 71.6 °F - 68.0 °F 88% 29.88 in 9.0 mi SW 8.1 mph - 0.11 in Thunderstorm Thunderstorm
5:15 AM 71.6 °F - 66.2 °F 83% 29.91 in 10.0 mi West 5.8 mph - 0.03 in Thunderstorm Thunderstorm
5:35 AM 69.8 °F - 66.2 °F 88% 29.92 in 10.0 mi SW 8.1 mph - 0.06 in Thunderstorm Mostly Cloudy
5:55 AM 69.8 °F - 66.2 °F 88% 29.92 in 10.0 mi SSW 9.2 mph - 0.11 in Thunderstorm Thunderstorm
6:15 AM 69.8 °F - 66.2 °F 88% 29.91 in 10.0 mi SW 12.7 mph 18.4 mph 0.06 in   Overcast
6:35 AM 69.8 °F - 66.2 °F 88% 29.91 in 10.0 mi SW 11.5 mph 21.9 mph 0.10 in   Overcast
6:55 AM 69.8 °F - 64.4 °F 83% 29.93 in 10.0 mi Calm Calm - 0.13 in Thunderstorm Mostly Cloudy
7:15 AM 69.8 °F - 64.4 °F 83% 29.96 in 10.0 mi West 6.9 mph - 0.01 in Thunderstorm Thunderstorm
7:35 AM 69.8 °F - 66.2 °F 88% 29.98 in 10.0 mi WSW 10.4 mph - 0.04 in   Mostly Cloudy
7:55 AM 69.8 °F - 66.2 °F 88% 30.00 in 8.0 mi West 10.4 mph - 0.10 in   Mostly Cloudy
8:15 AM 69.8 °F - 66.2 °F 88% 30.01 in 9.0 mi WSW 10.4 mph - 0.08 in Thunderstorm Overcast
8:35 AM 69.8 °F - 66.2 °F 88% 30.01 in 10.0 mi WSW 8.1 mph - 0.15 in Thunderstorm Thunderstorm
8:55 AM 69.8 °F - 66.2 °F 88% 29.99 in 8.0 mi SW 11.5 mph - 0.20 in   Overcast
9:15 AM 69.8 °F - 66.2 °F 88% 29.96 in 10.0 mi SSW 5.8 mph - 0.03 in   Overcast
9:35 AM 69.8 °F - 66.2 °F 88% 29.94 in 10.0 mi SSW 6.9 mph - 0.04 in   Scattered Clouds
9:55 AM 69.8 °F - 68.0 °F 94% 29.93 in 10.0 mi WSW 4.6 mph - 0.04 in   Clear
10:15 AM 69.8 °F - 68.0 °F 94% 29.91 in 10.0 mi South 6.9 mph - N/A   Clear
10:35 AM 71.6 °F - 69.8 °F 94% 29.91 in 10.0 mi SSW 6.9 mph - N/A   Clear
10:55 AM 71.6 °F - 69.8 °F 94% 29.92 in 10.0 mi South 8.1 mph - N/A   Clear
11:15 AM 71.6 °F - 68.0 °F 88% 29.93 in 10.0 mi SSW 9.2 mph - N/A   Clear
11:35 AM 73.4 °F - 68.0 °F 83% 29.94 in 10.0 mi Calm Calm - N/A   Clear
11:55 AM 73.4 °F - 69.8 °F 88% 29.95 in 10.0 mi South 5.8 mph - N/A   Clear
12:15 PM 75.2 °F - 69.8 °F 83% 29.94 in 8.0 mi WSW 5.8 mph - N/A   Clear
12:35 PM 77.0 °F - 69.8 °F 78% 29.94 in 10.0 mi SSW 3.5 mph - N/A   Clear
12:55 PM 75.2 °F - 66.2 °F 73% 29.93 in 10.0 mi SW 3.5 mph - N/A   Scattered Clouds
1:15 PM 75.2 °F - 68.0 °F 78% 29.94 in 10.0 mi West 3.5 mph - N/A   Mostly Cloudy
1:35 PM 75.2 °F - 68.0 °F 78% 29.93 in 10.0 mi Calm Calm - N/A   Mostly Cloudy
1:55 PM 75.2 °F - 66.2 °F 73% 29.94 in 10.0 mi NNW 3.5 mph - N/A   Scattered Clouds
2:15 PM 77.0 °F - 66.2 °F 69% 29.94 in 10.0 mi Calm Calm - N/A   Clear
2:35 PM 77.0 °F - 69.8 °F 78% 29.94 in 10.0 mi NNE 5.8 mph - N/A   Partly Cloudy
2:55 PM 77.0 °F - 69.8 °F 78% 29.93 in 10.0 mi North 4.6 mph - N/A   Scattered Clouds
3:15 PM 78.8 °F - 69.8 °F 74% 29.93 in 10.0 mi East 4.6 mph - N/A   Partly Cloudy
3:35 PM 78.8 °F - 69.8 °F 74% 29.92 in 10.0 mi Calm Calm - N/A   Clear
3:55 PM 78.8 °F - 69.8 °F 74% 29.92 in 10.0 mi Calm Calm - N/A   Partly Cloudy
4:15 PM 80.6 °F 83.9 °F 69.8 °F 70% 29.92 in 10.0 mi Calm Calm - N/A   Scattered Clouds
4:35 PM 80.6 °F 83.9 °F 69.8 °F 70% 29.92 in 10.0 mi Calm Calm - N/A   Clear
4:55 PM 80.6 °F 83.9 °F 69.8 °F 70% 29.93 in 10.0 mi Calm Calm - N/A   Clear
5:15 PM 80.6 °F 84.6 °F 71.6 °F 74% 29.92 in 10.0 mi South 4.6 mph - N/A   Clear
5:35 PM 82.4 °F 87.2 °F 71.6 °F 70% 29.92 in 10.0 mi SSE 4.6 mph - N/A   Clear
5:55 PM 82.4 °F 87.2 °F 71.6 °F 70% 29.93 in 10.0 mi SSE 3.5 mph - N/A   Clear
6:15 PM 82.4 °F 86.3 °F 69.8 °F 66% 29.93 in 10.0 mi Calm Calm - N/A   Clear
6:35 PM 80.6 °F 83.9 °F 69.8 °F 70% 29.94 in 10.0 mi SSW 6.9 mph - N/A   Partly Cloudy
6:55 PM 80.6 °F 84.6 °F 71.6 °F 74% 29.94 in 10.0 mi South 4.6 mph - N/A   Partly Cloudy
7:15 PM 78.8 °F - 71.6 °F 78% 29.94 in 10.0 mi Calm Calm - N/A   Partly Cloudy
7:35 PM 78.8 °F - 71.6 °F 78% 29.94 in 10.0 mi South 3.5 mph - N/A   Partly Cloudy
7:55 PM 78.8 °F - 71.6 °F 78% 29.95 in 10.0 mi Calm Calm - N/A   Clear
8:15 PM 77.0 °F - 71.6 °F 83% 29.95 in 10.0 mi Calm Calm - N/A   Clear
8:35 PM 75.2 °F - 71.6 °F 89% 29.94 in 10.0 mi Calm Calm - N/A   Clear
8:55 PM 73.4 °F - 71.6 °F 94% 29.94 in 10.0 mi Calm Calm - N/A   Clear
9:15 PM 73.4 °F - 71.6 °F 94% 29.94 in 10.0 mi Calm Calm - N/A   Clear
9:35 PM 73.4 °F - 69.8 °F 88% 29.95 in 10.0 mi Calm Calm - N/A   Clear
9:55 PM 73.4 °F - 71.6 °F 94% 29.95 in 10.0 mi Calm Calm - N/A   Clear
10:15 PM 71.6 °F - 69.8 °F 94% 29.96 in 10.0 mi Calm Calm - N/A   Clear
10:35 PM 71.6 °F - 69.8 °F 94% 29.97 in 10.0 mi Calm Calm - N/A   Clear
10:55 PM 71.6 °F - 69.8 °F 94% 29.97 in 10.0 mi ESE 3.5 mph - N/A   Clear
11:15 PM 71.6 °F - 69.8 °F 94% 29.98 in 10.0 mi East 3.5 mph - N/A   Clear
11:35 PM 71.6 °F - 68.0 °F 88% 29.97 in 10.0 mi Calm Calm - N/A   Clear
11:55 PM 71.6 °F - 69.8 °F 94% 29.98 in 5.0 mi Calm Calm - N/A   Clear